[[{"header":{"parameterUnit":"m.s-1","parameterCategory":1,"la1":30.2991,"la2":30.254,"lo1":-89.0895,"lo2":-89.0444,"dy":0.0017,"dx":0.0017,"nx":28,"ny":28,"refTime":"2023-10-20T03:00:00:Z","depth":0,"parameterNumber":2,"parameterNumberName":"U-component_of_WINDS"},"data":[0,0,0,0,0,0,0,0,0,0,0,0,0,0,0,0,0,0,0,0,0,0,0,0,0,0,0,0,0,0,0,0,0,0,0,0,0,0,0,0,0,0,0,0,0,0,0,0,0,0,0,0,0,0,0,0,0,0,4.5742,4.5743,0,4.5869,4.5871,4.5872,4.5839,4.5837,4.5834,4.5832,4.5968,4.5974,4.598,0,0,0,0,0,0,0,0,0,0,0,0,0,4.5474,4.5479,4.5741,4.5743,4.5745,4.5869,4.5871,4.5873,4.584,4.5837,4.5834,4.5831,4.5966,4.5973,4.598,0,0,0,0,0,0,0,0,0,0,0,0,0,4.5595,4.5481,4.5741,4.5743,4.5745,4.5869,4.5871,4.5873,4.584,4.5837,4.5833,4.5829,4.5964,4.5972,4.5981,4.6113,0,0,4.6008,4.6012,0,0,0,0,0,0,0,0,4.5588,4.5605,4.5741,4.5743,4.5745,4.5834,4.5826,4.5954,4.5841,4.5804,4.5832,4.5827,4.5927,4.5939,4.5971,4.6119,4.6125,4.6009,4.6015,4.6019,4.6021,0,0,0,0,0,0,0,4.558,4.5599,4.5792,4.5743,4.5746,4.5739,4.5752,4.585,4.5886,4.5807,4.5805,4.582,4.5927,4.5962,4.5974,4.6127,4.6009,4.6017,4.6023,4.6026,4.6392,4.6396,0,0,0,0,0,0,4.5569,4.5593,4.5788,4.5796,4.5656,4.5747,4.5762,4.581,4.5884,4.5892,4.5823,4.5818,4.5949,4.5964,4.5979,4.614,4.6019,4.6027,4.6032,4.6388,4.6393,4.6398,0,0,0,0,0,0,4.5564,4.5587,4.5783,4.5694,4.5718,4.5756,4.581,4.5814,4.5849,4.5897,4.5903,4.5853,4.5947,4.5966,4.608,4.6144,4.6031,4.6039,4.6383,4.6389,4.6395,4.6462,0,0,0,0,0,0,4.5556,4.5585,4.5634,4.5695,4.5723,4.5881,4.5814,4.5819,4.5864,4.5859,4.5926,4.5933,4.5945,4.6067,4.6089,4.6154,4.6046,4.6377,4.6386,4.6393,4.6454,4.647,4.6483,0,0,0,0,0,4.5547,4.5649,4.5637,4.5661,4.5785,4.5884,4.59,4.591,4.587,4.592,4.5951,4.5931,4.6133,4.6079,4.6103,4.6173,4.6373,4.6383,4.6393,4.6448,4.6467,4.6483,0,0,0,0,0,0,4.5596,4.5657,4.5644,4.5768,4.5821,4.5878,4.5943,4.593,4.5997,4.5989,4.6,4.6016,4.6133,4.6163,4.6102,4.6305,4.6247,4.6263,4.6281,4.63,4.6314,4.6305,4.6054,0,0,0,0,0,4.5621,4.5695,4.5744,4.5849,4.5876,4.5905,4.5948,4.5952,4.6007,4.603,4.6069,4.6125,4.6202,4.6252,4.6324,4.6458,4.6474,4.6518,4.6532,4.6544,4.6558,4.6634,4.6655,4.643,4.643,4.6429,0,0,4.5674,4.5716,4.5762,4.586,4.5901,4.598,4.5924,4.6009,4.6068,4.6044,4.6154,4.6184,4.6248,4.6373,4.643,4.6402,4.6623,4.6557,4.6565,4.6573,4.6646,4.6667,4.6686,4.6436,4.6435,4.6434,0,0,4.5811,4.5849,4.5942,4.5984,4.6047,4.6066,4.6088,4.6147,4.6166,4.6276,4.6261,4.6331,4.6462,4.6509,4.655,4.6706,4.6691,4.6729,4.6806,4.688,4.6898,4.6914,4.6972,4.6993,4.6742,4.6742,4.6742,0,4.587,4.5986,4.5991,4.6078,4.6123,4.6103,4.6198,4.624,4.6324,4.6356,4.6323,4.6488,4.6529,4.6666,4.6704,4.6737,4.6765,4.6723,4.6894,4.691,4.6925,4.6981,4.7003,4.6747,4.6746,4.6746,4.6745,0,4.6056,4.6137,4.6204,4.6285,4.6337,4.6428,4.6449,4.6502,4.65,4.6523,4.6637,4.6686,4.6769,4.6801,4.6801,4.6939,4.692,4.6891,4.6834,4.6951,4.7004,4.7025,4.6753,4.6751,4.675,4.6749,0,0,4.6229,4.6312,4.6337,4.6374,4.6442,4.6506,4.6597,4.6677,4.6723,4.6781,4.6859,4.697,4.6944,4.6991,4.6995,4.7059,4.7183,4.7023,4.7024,4.7053,4.7342,4.7366,4.739,4.7173,4.7177,4.718,4.7338,0,4.6375,4.6533,4.6541,4.6686,4.6763,4.6745,4.6824,4.6875,4.6899,4.6969,4.6995,4.7075,4.7032,4.7061,4.7123,4.7155,4.7242,4.7143,4.7249,4.7253,4.7236,4.7418,4.7443,4.7589,4.7358,4.7362,4.7364,0,4.6566,4.663,4.6782,4.6841,4.6873,4.6944,4.7019,4.7085,4.7144,4.7157,4.7209,4.7205,4.73,4.7237,4.7371,4.7303,4.7347,4.7369,4.7375,4.7388,4.7318,4.7438,4.7636,4.7659,4.7396,4.7394,4.7391,0,4.6681,4.6805,4.6913,4.6945,4.7015,4.7066,4.7098,4.7153,4.7201,4.7267,4.7299,4.7375,4.7418,4.7478,4.7496,4.7448,4.763,4.7567,4.7646,4.7645,4.7687,4.7685,4.7897,4.771,4.771,4.7709,4.7709,0,4.6845,4.694,4.6966,4.7032,4.7138,4.7147,4.7253,4.7282,4.7331,4.7404,4.7393,4.7462,4.748,4.7553,4.7568,4.7678,4.7696,4.7711,4.7715,4.7714,4.7713,4.7745,4.7736,4.7715,4.7714,4.7713,4.7712,0,4.6993,4.7013,4.713,4.7187,4.7203,4.7279,4.7329,4.7394,4.7415,4.7509,4.7531,4.7566,4.7653,4.7675,4.7778,4.7788,4.7918,4.7911,4.7899,4.7899,4.7977,4.7971,4.822,4.8255,4.8042,4.8044,4.8046,0,4.7097,4.7169,4.7234,4.7281,4.7315,4.7392,4.7441,4.7453,4.7505,4.7578,4.7635,4.7719,4.7787,4.7926,4.7962,4.8042,4.8038,4.812,4.805,4.8048,4.8043,4.8039,4.8048,4.8134,4.8136,4.8138,4.8139,0,4.7281,4.7288,4.7358,4.7433,4.7491,4.7551,4.7608,4.7648,4.7668,4.7727,4.7814,4.7867,4.7972,4.8057,4.8137,4.8172,4.8161,4.8161,4.8184,4.8185,4.8177,4.8185,4.7938,4.8156,4.8154,4.8153,4.8152,4.8151,4.7413,4.7477,4.7533,4.7612,4.7656,4.771,4.7774,4.7803,4.7876,4.7961,4.7964,4.806,4.8118,4.8225,4.8264,4.834,4.8316,4.8348,4.8357,4.8366,4.8374,4.8162,4.8355,4.8354,4.8354,4.8353,4.8353,0,4.76,4.7634,4.7707,4.7787,4.7849,4.783,4.7892,4.7947,4.8031,4.8085,4.8152,4.8254,4.8336,4.8378,4.8461,4.8514,4.8511,4.8536,4.8534,4.8542,4.8389,4.8363,4.8537,4.8537,4.8537,4.8537,4.8537,4.8537,4.7704,4.7813,4.7826,4.7957,4.7992,4.8084,4.8122,4.8172,4.8216,4.8329,4.8397,4.8423,4.8474,4.856,4.8635,4.8646,4.8678,4.8706,4.8714,4.8571,4.8553,4.8535,4.851,4.8712,4.8713,4.8861,4.8863,4.8864]},{"header":{"parameterUnit":"m.s-1","parameterCategory":1,"la1":30.2991,"la2":30.254,"lo1":-89.0895,"lo2":-89.0444,"dy":0.0017,"dx":0.0017,"nx":28,"ny":28,"refTime":"2023-10-20T03:00:00:Z","depth":0,"parameterNumber":3,"parameterNumberName":"V-component_of_WINDS"},"data":[0,0,0,0,0,0,0,0,0,0,0,0,0,0,0,0,0,0,0,0,0,0,0,0,0,0,0,0,0,0,0,0,0,0,0,0,0,0,0,0,0,0,0,0,0,0,0,0,0,0,0,0,0,0,0,0,0,0,0.8701,0.8701,0,0.8705,0.8706,0.8706,0.87,0.87,0.87,0.8699,0.8703,0.8704,0.8704,0,0,0,0,0,0,0,0,0,0,0,0,0,0.8686,0.8686,0.8701,0.8701,0.8701,0.8705,0.8706,0.8706,0.87,0.87,0.8699,0.8699,0.8703,0.8704,0.8704,0,0,0,0,0,0,0,0,0,0,0,0,0,0.8691,0.8686,0.8701,0.8699,0.8699,0.8705,0.8706,0.8706,0.87,0.87,0.8699,0.8699,0.8703,0.8704,0.8704,0.8713,0,0,0.8705,0.8706,0,0,0,0,0,0,0,0,0.8691,0.8692,0.8699,0.8699,0.8699,0.8702,0.8702,0.8708,0.87,0.8699,0.8699,0.8699,0.8703,0.8704,0.8705,0.8713,0.8713,0.8705,0.8706,0.8706,0.8706,0,0,0,0,0,0,0,0.8691,0.8692,0.8703,0.8699,0.8699,0.8697,0.8697,0.8703,0.8703,0.87,0.8699,0.87,0.8703,0.8705,0.8705,0.8713,0.8705,0.8706,0.8706,0.8706,0.8727,0.8728,0,0,0,0,0,0,0.8691,0.8691,0.8703,0.8703,0.8694,0.8698,0.8698,0.8701,0.8703,0.8703,0.87,0.8699,0.8704,0.8705,0.8705,0.8715,0.8706,0.8706,0.8707,0.8727,0.8727,0.8728,0,0,0,0,0,0,0.869,0.8692,0.8702,0.8697,0.8698,0.8698,0.8702,0.8701,0.8703,0.8703,0.8703,0.8702,0.8704,0.8705,0.8711,0.8715,0.8707,0.8707,0.8727,0.8727,0.8727,0.8734,0,0,0,0,0,0,0.869,0.8692,0.8696,0.8697,0.8699,0.8708,0.8702,0.8702,0.8704,0.8703,0.8705,0.8705,0.8704,0.871,0.8711,0.8715,0.8707,0.8726,0.8727,0.8727,0.8734,0.8735,0.8736,0,0,0,0,0,0.8689,0.8698,0.8696,0.8697,0.8703,0.8709,0.8709,0.8708,0.8704,0.8708,0.8708,0.8705,0.8714,0.8711,0.8712,0.8716,0.8726,0.8727,0.8727,0.8733,0.8735,0.8736,0,0,0,0,0,0,0.8697,0.8698,0.8696,0.8705,0.8707,0.8708,0.8712,0.871,0.8713,0.8712,0.871,0.871,0.8716,0.8717,0.8713,0.8724,0.8719,0.872,0.8723,0.8725,0.8726,0.8725,0.8708,0,0,0,0,0,0.8699,0.8704,0.8704,0.8712,0.8713,0.8712,0.8715,0.8713,0.8715,0.8716,0.8716,0.8718,0.8721,0.8723,0.8726,0.8734,0.8733,0.8737,0.8738,0.8739,0.874,0.8742,0.8744,0.873,0.873,0.873,0,0,0.8705,0.8706,0.8709,0.8713,0.8715,0.8719,0.8713,0.8718,0.8721,0.8716,0.8722,0.8722,0.8724,0.873,0.8733,0.8731,0.8743,0.874,0.874,0.8741,0.8743,0.8744,0.8746,0.873,0.873,0.873,0,0,0.8716,0.8718,0.8724,0.8725,0.8727,0.8726,0.8728,0.8729,0.8729,0.8734,0.8731,0.8734,0.874,0.874,0.8741,0.8752,0.8749,0.8753,0.8758,0.8761,0.8762,0.8763,0.8766,0.8767,0.8754,0.8754,0.8754,0,0.8723,0.8729,0.8728,0.8732,0.8734,0.873,0.8735,0.8736,0.8739,0.874,0.8737,0.8743,0.8744,0.875,0.8753,0.8754,0.8755,0.8753,0.8762,0.8763,0.8764,0.8766,0.8767,0.8754,0.8754,0.8754,0.8754,0,0.8736,0.874,0.8745,0.8747,0.8749,0.8754,0.8753,0.8755,0.8753,0.8752,0.8757,0.8758,0.876,0.8762,0.876,0.8767,0.8765,0.8763,0.8758,0.8766,0.8768,0.8769,0.8755,0.8754,0.8754,0.8754,0,0,0.8753,0.8754,0.8755,0.8755,0.8757,0.876,0.8764,0.8766,0.8767,0.8769,0.8772,0.8776,0.8773,0.8774,0.8773,0.8775,0.8782,0.8772,0.8772,0.8773,0.8788,0.879,0.8791,0.878,0.878,0.878,0.8788,0,0.8764,0.8771,0.8769,0.8777,0.878,0.8775,0.8779,0.878,0.8779,0.8781,0.878,0.8783,0.8779,0.8779,0.8782,0.8781,0.8785,0.878,0.8782,0.8782,0.8781,0.8792,0.8794,0.8801,0.8789,0.8789,0.8789,0,0.8778,0.8779,0.8787,0.8786,0.8787,0.879,0.8792,0.8794,0.8794,0.8793,0.8794,0.8791,0.8795,0.879,0.8794,0.8791,0.8791,0.8791,0.8791,0.8791,0.8785,0.8791,0.8804,0.8804,0.879,0.879,0.879,0,0.8787,0.8792,0.8796,0.8797,0.8797,0.8799,0.8799,0.8799,0.8799,0.88,0.8801,0.8802,0.8803,0.8803,0.8801,0.8798,0.8804,0.88,0.8803,0.8803,0.8804,0.8804,0.8816,0.8806,0.8806,0.8806,0.8806,0,0.8799,0.8804,0.8801,0.8803,0.8808,0.8805,0.8809,0.8809,0.8809,0.8811,0.8807,0.8809,0.8806,0.8807,0.8805,0.8808,0.8808,0.8807,0.8807,0.8807,0.8807,0.8807,0.8806,0.8806,0.8806,0.8806,0.8806,0,0.8811,0.8809,0.8814,0.8813,0.8813,0.8816,0.8815,0.8817,0.8815,0.8818,0.8818,0.8816,0.8817,0.8815,0.8816,0.8815,0.8818,0.8817,0.8818,0.8817,0.882,0.882,0.8832,0.8833,0.8823,0.8823,0.8823,0,0.8818,0.8821,0.882,0.8822,0.8822,0.8824,0.8824,0.8822,0.8822,0.8822,0.8824,0.8825,0.8826,0.8828,0.8826,0.8826,0.8824,0.8829,0.8825,0.8825,0.8823,0.8823,0.8823,0.8829,0.883,0.883,0.883,0,0.8831,0.8829,0.8831,0.8832,0.8833,0.8833,0.8833,0.8834,0.8831,0.8832,0.8833,0.8834,0.8835,0.8835,0.8835,0.8834,0.8831,0.8831,0.8832,0.8832,0.8832,0.8831,0.882,0.8831,0.8831,0.8831,0.883,0.883,0.884,0.8842,0.8841,0.8843,0.8842,0.8842,0.8844,0.8843,0.8844,0.8844,0.8842,0.8843,0.8842,0.8842,0.8841,0.8842,0.884,0.8841,0.8841,0.8841,0.8841,0.8832,0.8842,0.8842,0.8842,0.8842,0.8842,0,0.8851,0.885,0.8852,0.8852,0.8853,0.885,0.885,0.885,0.8851,0.8851,0.8851,0.8852,0.8852,0.885,0.885,0.8851,0.8849,0.8851,0.885,0.885,0.8843,0.8843,0.8852,0.8852,0.8852,0.8852,0.8852,0.8852,0.8857,0.886,0.8859,0.8861,0.886,0.8862,0.8862,0.8861,0.8861,0.8862,0.8862,0.8861,0.8859,0.8859,0.8858,0.8858,0.8857,0.8859,0.8858,0.8852,0.8851,0.885,0.8849,0.8859,0.8859,0.8865,0.8865,0.8865]}]]